Location: Newark
(45.4422°N, 16.2769°E)
Time: 04:41:07
(UTC+00:00)

Explorer 7 - Pass Details

Date: 25 January 2021
Orbit: 484 x 677 km, 50.3° (Epoch: 05 March)

Event Time Altitude Azimuth Distance (km) Brightness Sun altitude
Exits shadow 03:02:48 12° 75° (ENE) 1,586 9.9 -35.0°
Drops below altitude 10° 03:03:08 11° 74° (ENE) 1,711 10.1 -35.0°
Sets 03:05:33 0° 67° (ENE) 2,663 11.3 -34.5°
